www.pogodaiklimat.ru

Погода и климат >> Архив погоды >> Япония >> Томакомай


ПОГОДА в Томакомае

  • Прогноз погоды в Томакомае
  • Монитор погоды в Томакомае

АРХИВ ПОГОДЫ в Томакомае

Время (UTC), дата Ветер
(напр.,м/с)
 
Видим.   Явления Облачность Т
(С)
Тd
(С)
f
(%)
Тe
(С)
Тes
(С)
Комфортность P
(гПа)
Po
(гПа)
Тmin
(С)
Tmax
(С)
R
(мм)
R24
(мм)
S
(см)
16 13.09 ЮВ 8 20 км н/о +18.1 +14.0 77 +17 +17 1017.4 1016.5
17 13.09 ЮВ 8 20 км н/о +18.3 +13.6 74 +18 +18 1016.7 1015.8
18 13.09 ЮВ 7 20 км н/о +18.3 +13.8 75 +18 +18 1016.2 1015.3
19 13.09 ЮВ 7 20 км слаб. дождь н/о +18.4 +13.3 72 +18 +18 1016.2 1015.3
21 13.09 ЮВ 8 20 км {дождь} н/о +19.0 +14.5 75 +19 +19 1015.8 1014.9
23 13.09 ЮВ 8 20 км н/о +19.6 +16.1 80 +21 +21 комфорт 1015.5 1014.6
00 14.09 ЮВ 8 20 км {дождь} н/о +19.7 +16.6 82 +21 +21 комфорт 1015.3 1014.4 +18.1 0.0
01 14.09 ЮВ 5 20 км н/о +22.6 +17.7 74 +28 +28 душно 1014.9 1014.0
02 14.09 Ю 5 20 км в посл. час дождь н/о +21.6 +16.6 73 +25 +25 комфорт 1014.7 1013.8
03 14.09 ЮВ 4 20 км {дождь} н/о +22.8 +17.3 71 +28 +28 душно 1013.7 1012.8
04 14.09 Ю 4 20 км н/о +22.5 +17.0 71 +27 +27 душно 1013.1 1012.2
05 14.09 Ю 4 20 км н/о +22.1 +16.4 70 +26 +26 душно 1012.6 1011.7
06 14.09 Ю 3 20 км {дождь} н/о +21.7 +16.4 72 +26 +26 душно 1012.3 1011.4 0.0
07 14.09 ЮВ 2 20 км н/о +21.5 +17.1 76 +25 +25 комфорт 1012.2 1011.3
08 14.09 ЮВ 3 20 км н/о +21.2 +17.4 79 +25 +25 комфорт 1012.2 1011.3
09 14.09 Ю 2 20 км н/о +21.0 +17.8 82 +26 +26 душно 1012.2 1011.3
10 14.09 Ю 1 20 км н/о +20.9 +16.9 78 +26 +26 душно 1012.4 1011.5
11 14.09 З 1 20 км н/о +20.3 +17.5 84 +25 +25 комфорт 1012.2 1011.3
12 14.09 З 2 20 км н/о +19.5 +17.3 87 +22 +22 комфорт 1012.2 1011.3 +23.4 0.0
13 14.09 С 2 20 км н/о +19.5 +16.9 85 +22 +22 комфорт 1011.9 1011.0
14 14.09 СВ 1 20 км н/о +19.6 +17.2 86 +23 +23 комфорт 1011.4 1010.5
15 14.09 С 1 20 км в посл. час дождь н/о +19.4 +17.4 88 +23 +23 комфорт 1011.5 1010.6
16 14.09 В 1 20 км н/о +19.6 +18.1 91 +23 +23 комфорт 1011.2 1010.3
17 14.09 В 2 8000 м дымка н/о +20.4 +19.8 96 +25 +25 комфорт 1010.5 1009.6
18 14.09 В 2 9000 м дымка {дождь} н/о +20.5 +19.9 96 +25 +25 комфорт 1010.6 1009.7 0.0
19 14.09 СВ 2 7000 м слаб. дождь н/о +20.3 +19.8 97 +25 +25 комфорт 1010.4 1009.5
20 14.09 С 3 11 км слаб. дождь н/о +19.4 +18.4 94 +22 +22 комфорт 1010.8 1009.9
21 14.09 С 4 20 км в посл. час дождь н/о +18.9 +17.6 92 +20 +20 1011.1 1010.2
22 14.09 С 5 20 км н/о +19.0 +17.7 92 +20 +20 1011.3 1010.4
23 14.09 С 3 20 км н/о +19.5 +17.8 90 +22 +22 комфорт 1011.3 1010.4
00 15.09 С 4 20 км {дождь} н/о +20.9 +17.9 83 +25 +25 комфорт 1011.7 1010.8 +18.8 1
01 15.09 С 4 20 км н/о +21.6 +17.8 79 +26 +26 душно 1011.8 1010.9
02 15.09 СВ 4 20 км слаб. дождь н/о +21.8 +17.6 77 +26 +26 душно 1011.8 1010.9
03 15.09 С 4 20 км в посл. час дождь н/о +23.0 +17.7 72 +28 +28 душно 1011.6 1010.7
04 15.09 С 3 20 км н/о +23.4 +17.6 70 +29 +29 душно 1011.1 1010.2
05 15.09 С 3 20 км н/о +23.3 +18.0 72 +29 +29 душно 1011.1 1010.2
06 15.09 СВ 3 20 км {дождь} н/о +23.8 +18.2 71 +28 +28 душно 1011.1 1010.2 0.0
07 15.09 СВ 1 20 км н/о +23.1 +17.8 72 +29 +29 очень
душно
1011.1 1010.2
08 15.09 ЮЗ 1 20 км н/о +22.1 +18.1 78 +27 +27 душно 1011.5 1010.6
09 15.09 З 1 20 км н/о +22.0 +18.2 79 +27 +27 душно 1011.8 1010.9
10 15.09 С 2 20 км н/о +20.8 +18.6 87 +26 +26 душно 1012.0 1011.1
11 15.09 С 2 20 км н/о +19.8 +17.9 89 +23 +23 комфорт 1012.3 1011.4
12 15.09 СВ 3 20 км н/о +19.4 +17.6 89 +22 +22 комфорт 1012.4 1011.5 +24.2 0.0
13 15.09 С 3 20 км слаб. дождь н/о +19.1 +17.4 90 +21 +21 комфорт 1012.6 1011.7
14 15.09 СВ 2 20 км слаб. дождь н/о +19.0 +17.3 90 +21 +21 комфорт 1012.2 1011.3
16 15.09 С 2 20 км в посл. час дождь н/о +19.1 +17.3 89 +22 +22 комфорт 1011.5 1010.6
17 15.09 С 2 20 км в посл. час дождь н/о +19.0 +17.9 93 +21 +21 комфорт 1011.0 1010.1
18 15.09 С 2 18 км {дождь} н/о +19.2 +18.4 95 +22 +22 комфорт 1010.6 1009.7 0.0
19 15.09 СВ 1 18 км н/о +19.4 +18.6 95 +23 +23 комфорт 1010.2 1009.3
21 15.09 С 1 13 км в посл. час дождь н/о +19.6 +18.8 95 +24 +24 комфорт 1010.1 1009.2
22 15.09 С 2 20 км н/о +20.2 +18.3 89 +24 +24 комфорт 1010.0 1009.1
23 15.09 СВ 1 20 км н/о +21.4 +18.2 82 +26 +26 душно 1009.7 1008.8
00 16.09 В 1 20 км в посл. час дождь н/о +21.4 +18.0 81 +26 +26 душно 1009.5 1008.6 +18.9 0.0
01 16.09 ЮВ 2 20 км в посл. час дождь н/о +22.1 +17.9 77 +27 +27 душно 1008.7 1007.8
02 16.09 Ю 1 20 км в посл. час дождь н/о +21.8 +18.0 79 +26 +26 душно 1008.1 1007.2
03 16.09 Ю 2 20 км {дождь} н/о +22.4 +18.2 77 +28 +28 душно 1007.2 1006.3
04 16.09 Ю 2 20 км н/о +23.3 +19.1 77 +30 +30 очень
душно
1006.5 1005.6
05 16.09 Ю 2 20 км слаб. дождь н/о +22.3 +19.9 86 +28 +28 душно 1005.9 1005.0
06 16.09 ЮЗ 2 20 км в посл. час дождь н/о +22.3 +19.5 84 +28 +28 душно 1005.6 1004.7 0.0
07 16.09 ЮЗ 1 20 км н/о +22.8 +18.1 75 +28 +28 душно 1004.9 1004.0
08 16.09 СЗ 2 20 км н/о +22.7 +18.9 79 +29 +29 очень
душно
1004.7 1003.8
09 16.09 С 1 20 км н/о +22.2 +19.4 84 +28 +28 душно 1004.2 1003.3
10 16.09 С 2 20 км н/о +21.4 +19.5 89 +26 +26 душно 1004.5 1003.6
11 16.09 С 4 20 км н/о +21.1 +19.2 89 +26 +26 душно 1004.4 1003.5
12 16.09 С 4 20 км н/о +20.9 +19.0 89 +26 +26 душно 1004.3 1003.4 +23.7 0.0
13 16.09 С 4 20 км в посл. час дождь н/о +20.3 +18.6 90 +24 +24 комфорт 1004.1 1003.2
14 16.09 С 5 20 км н/о +20.8 +17.0 79 +24 +24 комфорт 1004.4 1003.5
15 16.09 С 3 20 км {дождь} н/о +20.4 +17.6 84 +24 +24 комфорт 1004.3 1003.4
16 16.09 С 4 20 км н/о +20.7 +17.5 82 +25 +25 комфорт 1004.5 1003.6
17 16.09 С 6 20 км н/о +19.7 +15.4 76 +21 +21 комфорт 1005.0 1004.1
18 16.09 С 6 20 км {дождь} н/о +19.0 +12.7 67 +20 +20 1005.5 1004.6 0.0
19 16.09 С 6 20 км н/о +19.0 +11.1 60 +19 +19 1005.8 1004.9
20 16.09 С 6 20 км н/о +18.2 +13.3 73 +18 +18 1006.9 1006.0
21 16.09 С 4 20 км н/о +18.1 +13.8 76 +18 +18 1008.0 1007.1
22 16.09 С 4 20 км н/о +19.5 +13.2 67 +21 +21 комфорт 1009.0 1008.1
23 16.09 С 6 20 км н/о +21.1 +13.0 60 +23 +23 комфорт 1009.4 1008.5
00 17.09 С 6 20 км н/о +22.3 +12.8 55 +25 +25 комфорт 1010.1 1009.2 +18.0 0.0
01 17.09 С 5 20 км н/о +23.9 +13.2 51 +26 +26 жарко 1010.1 1009.2
02 17.09 С 5 20 км н/о +23.7 +12.1 48 +25 +25 комфорт 1010.0 1009.1
03 17.09 С 7 20 км н/о +24.3 +12.3 47 +26 +26 жарко 1010.2 1009.3
04 17.09 С 7 20 км н/о +24.4 +9.6 39 +25 +25 комфорт 1010.2 1009.3
05 17.09 С 6 20 км н/о +24.2 +11.9 46 +26 +26 жарко 1010.7 1009.8
06 17.09 СВ 7 20 км н/о +23.0 +11.7 49 +25 +25 комфорт 1011.1 1010.2
07 17.09 С 7 20 км н/о +22.0 +12.0 53 +24 +24 комфорт 1011.9 1011.0
08 17.09 С 6 20 км н/о +20.1 +11.9 59 +22 +22 комфорт 1012.6 1011.7
09 17.09 С 5 20 км н/о +18.2 +12.4 69 +18 +18 1013.0 1012.1
10 17.09 С 5 20 км н/о +17.0 +11.9 72 +16 +16 1013.7 1012.8
11 17.09 С 6 20 км н/о +16.6 +12.0 74 +15 +15 1013.8 1012.9
12 17.09 С 5 20 км н/о +16.0 +11.8 76 +15 +15 1014.0 1013.1 +25.0
13 17.09 С 5 20 км н/о +16.1 +10.9 71 +15 +15 1014.1 1013.2
14 17.09 С 2 20 км н/о +15.5 +10.5 72 +16 +16 1014.1 1013.2
15 17.09 С 3 20 км н/о +15.6 +10.2 70 +15 +15 1014.2 1013.3
16 17.09 С 4 20 км н/о +15.2 +9.8 70 +14 +14 1014.0 1013.1
17 17.09 С 3 20 км н/о +15.0 +9.8 71 +14 +14 1013.5 1012.6
18 17.09 С 2 20 км н/о +14.2 +10.1 76 +14 +14 1012.9 1012.0
19 17.09 С 3 20 км н/о +13.5 +9.8 78 +12 +12 1013.6 1012.7
20 17.09 СВ 2 20 км н/о +13.3 +9.8 79 +13 +13 1013.2 1012.3
21 17.09 СВ 2 20 км н/о +13.0 +10.0 82 +13 +13 1013.1 1012.1
23 17.09 В 1 20 км н/о +14.6 +10.6 77 +16 +16 1012.8 1011.9
00 18.09 ЮВ 2 20 км н/о +15.8 +11.6 76 +16 +16 1013.0 1012.1 +12.6
01 18.09 Ю 2 20 км н/о +17.3 +13.2 77 +18 +18 1011.8 1010.9
02 18.09 ЮЗ 2 20 км н/о +18.2 +13.7 75 +19 +19 1011.5 1010.6
03 18.09 Ю 2 15 км н/о +18.5 +14.8 79 +20 +20 1010.4 1009.5
04 18.09 Ю 2 20 км н/о +20.0 +15.2 74 +23 +23 комфорт 1009.8 1008.9
05 18.09 ЮЗ 3 20 км н/о +20.0 +15.5 75 +23 +23 комфорт 1009.2 1008.3
06 18.09 ЮЗ 4 20 км н/о +20.8 +15.4 71 +24 +24 комфорт 1008.5 1007.6
07 18.09 Ю 5 20 км н/о +21.6 +17.4 77 +26 +26 душно 1007.8 1006.9
09 18.09 Ю 8 20 км н/о +20.7 +16.9 79 +24 +24 комфорт 1006.7 1005.8
10 18.09 Ю 6 20 км н/о +20.7 +17.1 80 +24 +24 комфорт 1007.2 1006.3
11 18.09 ЮЗ 5 17 км слаб. дождь н/о +20.5 +15.5 73 +23 +23 комфорт 1007.6 1006.7
12 18.09 СЗ 3 20 км слаб. дождь н/о +16.3 +13.6 84 +16 +16 1008.1 1007.2 +22.1 3
13 18.09 СЗ 3 20 км в посл. час дождь н/о +15.0 +12.0 82 +14 +14 1009.0 1008.1
14 18.09 СЗ 2 20 км н/о +14.0 +9.7 75 +13 +13 1009.6 1008.7
15 18.09 СЗ 2 20 км {дождь} н/о +12.2 +8.9 80 +12 +12 1010.3 1009.3
16 18.09 СЗ 4 20 км н/о +13.1 +5.3 59 +12 +12 1010.4 1009.5
17 18.09 З 2 20 км н/о +11.1 +6.1 71 +10 +10 1010.7 1009.7
18 18.09 З 2 20 км {дождь} н/о +9.5 +6.9 84 +8 +8 1011.1 1010.1 0.0
19 18.09 З 2 20 км н/о +8.5 +6.3 86 +7 +7 1011.0 1010.0
20 18.09 З 2 20 км н/о +7.7 +5.9 88 +6 +6 1011.2 1010.2
21 18.09 СЗ 2 20 км н/о +9.0 +5.8 80 +7 +7 1011.5 1010.5
22 18.09 З 5 20 км н/о +12.9 +4.1 55 +11 +11 1011.0 1010.1
23 18.09 З 4 20 км н/о +15.0 +4.7 50 +14 +14 1010.6 1009.7
00 19.09 З 6 20 км н/о +15.1 +3.6 46 +14 +14 1010.3 1009.4 +7.4 0.0
01 19.09 З 4 20 км в посл. час дождь н/о +16.8 +4.5 44 +16 +16 1009.9 1009.0
02 19.09 З 8 20 км н/о +17.3 +3.2 39 +16 +16 1009.3 1008.4
03 19.09 З 9 20 км слаб. дождь н/о +16.8 +1.7 36 +15 +15 1009.4 1008.5
04 19.09 З 7 20 км в посл. час дождь н/о +18.3 +1.8 33 +18 +18 1008.7 1007.8
05 19.09 З 5 20 км в посл. час дождь н/о +17.6 +4.2 41 +17 +17 1008.4 1007.5
06 19.09 З 7 20 км {дождь} н/о +17.1 +4.1 42 +16 +16 1008.2 1007.3 0.0
07 19.09 З 4 20 км в посл. час дождь н/о +14.9 +7.7 62 +14 +14 1007.9 1007.0
08 19.09 СВ 1 20 км н/о +14.3 +8.3 67 +15 +15 1007.9 1007.0
09 19.09 СВ 2 20 км в посл. час дождь н/о +14.1 +8.1 67 +14 +14 1007.9 1007.0
10 19.09 СЗ 2 20 км н/о +14.9 +7.7 62 +15 +15 1008.2 1007.3
11 19.09 СВ 2 20 км н/о +13.8 +8.0 68 +13 +13 1009.0 1008.1
12 19.09 З 3 20 км {дождь} н/о +15.1 +6.4 56 +14 +14 1009.0 1008.1 +19.1 0.0
13 19.09 СЗ 5 20 км слаб. дождь н/о +14.7 +8.0 64 +13 +13 1009.1 1008.2
14 19.09 ЮВ 2 20 км в посл. час дождь н/о +15.0 +6.8 58 +15 +15 1009.5 1008.6
15 19.09 СВ 2 20 км {дождь} н/о +14.8 +6.6 58 +15 +15 1009.8 1008.9
16 19.09 В 2 20 км в посл. час дождь н/о +13.7 +7.5 66 +14 +14 1010.4 1009.5
18 19.09 СЗ 3 20 км {дождь} н/о +13.4 +7.4 67 +13 +13 1010.6 1009.7 0.0
19 19.09 З 3 20 км в посл. час дождь н/о +14.1 +7.2 63 +13 +13 1011.0 1010.1
20 19.09 З 2 20 км н/о +12.8 +7.7 71 +12 +12 1011.5 1010.6
21 19.09 З 3 20 км {дождь} н/о +13.4 +7.4 67 +12 +12 1012.2 1011.3
22 19.09 З 5 20 км н/о +15.6 +6.9 56 +15 +15 1012.3 1011.4
23 19.09 З 6 20 км н/о +16.5 +7.2 54 +16 +16 1012.9 1012.0
00 20.09 З 3 20 км {дождь} н/о +17.3 +8.2 55 +17 +17 1013.3 1012.4 +12.3 0.0
01 20.09 З 4 20 км н/о +18.2 +7.0 48 +18 +18 1013.2 1012.3
02 20.09 З 5 20 км н/о +19.8 +7.5 45 +21 +21 комфорт 1013.3 1012.4
03 20.09 СЗ 4 20 км н/о +18.6 +6.8 46 +19 +19 1013.4 1012.5
04 20.09 З 4 20 км н/о +19.6 +7.0 44 +20 +20 1013.7 1012.8
05 20.09 СЗ 7 20 км н/о +20.1 +5.7 39 +20 +20 1014.0 1013.1
06 20.09 СВ 4 20 км н/о +18.6 +8.8 53 +19 +19 1014.9 1014.0
07 20.09 С 4 20 км н/о +17.6 +9.3 58 +17 +17 1015.6 1014.7
08 20.09 С 4 20 км н/о +16.4 +9.1 62 +16 +16 1016.7 1015.8
09 20.09 СЗ 2 20 км н/о +14.6 +9.0 69 +15 +15 1017.9 1017.0
10 20.09 С 3 20 км н/о +13.5 +8.6 72 +13 +13 1019.3 1018.3
11 20.09 С 3 20 км н/о +12.6 +7.9 73 +11 +11 1020.2 1019.2
12 20.09 СЗ 3 20 км н/о +11.7 +7.6 76 +10 +10 1020.8 1019.8 +21.4
13 20.09 С 1 20 км н/о +11.5 +7.6 77 +11 +11 1021.3 1020.3
14 20.09 СЗ 2 20 км н/о +10.0 +7.6 85 +8 +8 1021.8 1020.8
15 20.09 СВ 4 20 км н/о +9.8 +7.4 85 +7 +7 1022.1 1021.1

 

Местоположение метеостанции Томакомай (Япония): широта 42.62 долгота 141.55 высота над уровнем моря 11 м.

В архиве по умолчанию представлена погода в Томакомае за последнюю неделю. Архивные данные за месяц целиком и за предыдущие месяцы, начиная с января 2011 года, Вы можете получить, выбрав интересующий диапазон дат из раскрывающегося списка и нажав кнопку "Ввод!".


*Определитесь, кто Вы:
робот инопланетянин человек

Внимание! Время в таблицах - всемирное. Для получения местного времени необходимо прибавить поправку, которая равна 9 ч.

Смотрите также архив погоды в соседних городах и на ближайших метеорологических станциях:

Погода в Саппоро (Япония) (53 км)
Погода в Муроране (Япония) (57 км)
Погода в Ивамидзаве (Япония) (69 км)
Погода в Куттяне (Япония) (72 км)
Погода в Отару (Япония) (76 км)
Погода в Хакодате (Япония) (111 км)
Погода в Суццу (Япония) (111 км)
Погода в Уракава (Япония) (113 км)
Погода в Обихиро (Япония) (140 км)
Погода в Асахикаве (Япония) (144 км)

Пояснения к столбцам:

Ветер - указаны скорость ветра в м/с - средняя за 10 мин, порывы в срок и между сроками (в фигурных скобках) и направление, откуда дует ветер: С - северный, СВ - северо-восточный, В - восточный, ЮВ - юго-восточный, Ю - южный, ЮЗ - юго-западный, З - западный, СЗ - северо-западный.
Видимость - горизонтальная дальность видимости в метрах или километрах. При видимости от 1 до 10 км при отсутствии осадков обычно наблюдается дымка, при ухудшении видимости до 1 км и менее - туман. В сухую погоду видимость может ухудшаться дымом, пылью или мглою.
Явления - указаны атмосферные явления, наблюдавшиеся в срок или в последний час перед сроком; фигурными скобками обозначены явления, наблюдавшиеся между сроками (за 1-3 часа до срока); квадратными скобками обозначены град или гололедные отложения с указанием их диаметра в мм.
Облачность - указаны через наклонную черту общая и нижняя облачность в баллах и высота нижней границы облаков в метрах; квадратными скобками обозначены формы облаков: Ci - перистые, Cs - перисто-слоистые, Cc - перисто-кучевые, Ac - высококучевые, As - высокослоистые, Sc - слоисто-кучевые, Ns - слоисто-дождевые, Cu - кучевые, Cb - кучево-дождевые. Подробнее классификацию облаков см. в Атласе облаков (PDF).
T - Температура воздуха - температура, измеренная на высоте 2 м над землей.
Td - Температура точки росы - температура, при понижении до которой содержащийся в воздухе водяной пар достигнет насыщения.
f - Относительная влажность воздуха - влажноcть воздуха, измеренная на высоте 2 м над землей.
Te - Эффективная температура - температура, которую ощущает одетый по сезону человек в тени. Характеристика душности погоды. При расчете учитывается влияние влажности воздуха и скорости ветра на теплоощущения человека.
Tes - Эффективная температура на солнце - температура, которую ощущает человек, с поправкой на солнечный нагрев. Характеристика знойности погоды. Зависит от высоты солнца над горизонтом, облачности и скорости ветра. Ночью, в пасмурную погоду, а также при ветре 12 м/с и более поправка равна нулю.
P - Атмосферное давление - приведенное к уровню моря атмосферное давление.
Po - Атмосферное давление - измеренное на уровне метеостанции атмосферное давление.
Tmin - Минимальная температура - минимум температуры воздуха на высоте 2 м над землей.
Tmax - Максимальная температура - максимум температуры воздуха на высоте 2 м над землей.
R - Количество осадков - Количество выпавших осадков за период времени, мм. При наведении курсора мыши на число - период времени, за который выпало указанное количество осадков.
R24 - Количество осадков - Количество выпавших осадков за 24 часа, мм.
S - Снежный покров - Высота снежного покрова, см. При наведении курсора мыши на число - состояние снежного покрова и степень покрытия местности в баллах.